Weather History for KDFI - February, 2013

Change the Weather History Date:

Thursday, February 28, 2013

  Actual Average Record
Temperature  
Mean Temperature 34 °F -  
Max Temperature 37 °F 39 °F - (-1)
Min Temperature 32 °F 21 °F - (-1)
Degree Days  
Heating Degree Days 30    
Moisture  
Dew Point 30 °F    
Average Humidity 84    
Maximum Humidity 96    
Minimum Humidity 70    
Precipitation  
Precipitation 0.01 in - - ()
Sea Level Pressure  
Sea Level Pressure 29.76 in    
Wind  
Wind Speed 7 mph (NW)    
Max Wind Speed 15 mph    
Max Gust Speed 22 mph    
Visibility 8 miles    
Events Snow    
Averages and records for this station are not official NWS values.
T = Trace of Precipitation, MM = Missing Value Source: NWS Daily Summary

Daily Weather History Graph

Daily Weather History Graph

Search for Another Location

Airport or City:

Trip Planner

Search our weather history database for the weather conditions in past years. The results will help you decide how hot, cold, wet, or windy it might be!

Date:

Astronomy

Feb. 28, 2013 Rise Set
Actual Time 7:13 AM EST 6:27 PM EST
Civil Twilight 6:45 AM EST 6:55 PM EST
Nautical Twilight 6:13 AM EST 7:27 PM EST
Astronomical Twilight 5:41 AM EST 7:59 PM EST
Moon 9:56 PM EST (2/28) 8:19 AM EST (2/28)
Length of Visible Light 12h 09m
Length of Day
11h 14m
Waning Gibbous, 91% of the Moon is Illuminated
Feb 28
Waning Gibbous
Mar 4
Last Quarter
Mar 11
New
Mar 19
First Quarter
Mar 27
Full

Hourly Weather History & Observations

Time (EST) Temp. Windchill Dew Point Humidity Pressure Visibility Wind Dir Wind Speed Gust Speed Precip Events Conditions
12:27 AM 32.0 °F 24.2 °F 30.2 °F 93% 29.59 in 3.0 mi SW 9.2 mph - 0.00 in Snow Light Snow
12:53 AM 32.0 °F 25.6 °F 30.0 °F 92% 29.61 in 8.0 mi SW 6.9 mph - 0.00 in   Overcast
1:53 AM 32.0 °F 25.6 °F 30.0 °F 92% 29.61 in 5.0 mi WSW 6.9 mph - 0.00 in Snow Light Snow
2:53 AM 33.1 °F 30.0 °F 30.9 °F 92% 29.61 in 4.0 mi WSW 3.5 mph - 0.00 in Snow Light Snow
3:53 AM 33.1 °F 28.7 °F 30.9 °F 92% 29.62 in 3.0 mi West 4.6 mph - 0.00 in Snow Light Snow
4:20 AM 33.8 °F 29.6 °F 30.2 °F 87% 29.60 in 2.5 mi WSW 4.6 mph - 0.00 in Snow Light Snow
4:42 AM 33.8 °F 28.6 °F 30.2 °F 87% 29.60 in 2.0 mi WSW 5.8 mph - 0.00 in Snow Light Snow
4:53 AM 33.1 °F 28.7 °F 32.0 °F 96% 29.62 in 2.5 mi WSW 4.6 mph - 0.00 in Snow Light Snow
5:12 AM 33.8 °F 29.6 °F 32.0 °F 93% 29.61 in 3.0 mi WSW 4.6 mph - 0.00 in   Overcast
5:53 AM 33.1 °F 30.0 °F 32.0 °F 96% 29.64 in 5.0 mi Variable 3.5 mph - 0.00 in   Overcast
6:13 AM 33.8 °F 29.6 °F 32.0 °F 93% 29.62 in 7.0 mi Variable 4.6 mph - N/A   Overcast
6:34 AM 33.8 °F 28.6 °F 32.0 °F 93% 29.63 in 9.0 mi WNW 5.8 mph - N/A   Overcast
6:53 AM 34.0 °F 27.2 °F 32.0 °F 92% 29.66 in 5.0 mi NW 8.1 mph - 0.00 in Snow Light Snow
7:30 AM 33.8 °F 27.0 °F 32.0 °F 93% 29.66 in 4.0 mi NW 8.1 mph - 0.01 in Snow Light Snow
7:53 AM 34.0 °F 28.0 °F 32.0 °F 92% 29.69 in 3.0 mi NW 6.9 mph - 0.01 in Snow Light Snow
8:53 AM 34.0 °F 26.6 °F 32.0 °F 92% 29.71 in 6.0 mi NW 9.2 mph - 0.00 in Snow Light Snow
9:53 AM 35.1 °F 26.9 °F 30.9 °F 85% 29.73 in 7.0 mi NW 11.5 mph - 0.00 in Snow Light Snow
10:34 AM 35.6 °F 27.1 °F 30.2 °F 81% 29.73 in 10.0 mi NNW 12.7 mph - 0.00 in   Overcast
10:53 AM 36.0 °F 28.0 °F 30.9 °F 82% 29.75 in 10.0 mi NNW 11.5 mph - 0.00 in   Overcast
11:53 AM 37.0 °F 29.3 °F 30.9 °F 79% 29.77 in 10.0 mi NW 11.5 mph - N/A   Overcast
12:53 PM 37.9 °F 29.2 °F 32.0 °F 79% 29.79 in 10.0 mi NNW 15.0 mph 21.9 mph N/A   Overcast
1:53 PM 37.9 °F 30.5 °F 30.9 °F 76% 29.80 in 10.0 mi NNW 11.5 mph - N/A   Overcast
2:53 PM 37.9 °F 31.5 °F 30.9 °F 76% 29.81 in 10.0 mi NNW 9.2 mph - N/A   Overcast
3:50 PM 37.4 °F 30.3 °F 30.2 °F 75% 29.81 in 10.0 mi NNW 10.4 mph - N/A   Overcast
3:53 PM 37.9 °F 31.5 °F 30.0 °F 73% 29.84 in 10.0 mi NNW 9.2 mph - N/A   Overcast
4:14 PM 37.4 °F 28.5 °F 28.4 °F 70% 29.83 in 10.0 mi NNW 15.0 mph - N/A   Overcast
4:38 PM 37.4 °F 30.8 °F 28.4 °F 70% 29.83 in 10.0 mi NNW 9.2 mph - N/A   Overcast
4:53 PM 37.0 °F 29.8 °F 28.9 °F 73% 29.86 in 10.0 mi NNW 10.4 mph - N/A   Overcast
5:53 PM 36.0 °F 31.1 °F 28.9 °F 76% 29.89 in 10.0 mi NNW 5.8 mph - N/A   Overcast
6:25 PM 35.6 °F 30.7 °F 28.4 °F 75% 29.89 in 10.0 mi NNW 5.8 mph - N/A   Overcast
6:53 PM 36.0 °F 30.3 °F 28.9 °F 76% 29.92 in 10.0 mi North 6.9 mph - N/A   Overcast
7:53 PM 35.1 °F 31.0 °F 28.9 °F 78% 29.94 in 10.0 mi NNW 4.6 mph - N/A   Overcast
8:53 PM 35.1 °F 31.0 °F 28.0 °F 76% 29.95 in 10.0 mi North 4.6 mph - N/A   Overcast
9:53 PM 34.0 °F 31.0 °F 28.9 °F 82% 29.96 in 10.0 mi North 3.5 mph - N/A   Overcast
10:53 PM 34.0 °F 28.8 °F 28.0 °F 79% 29.96 in 10.0 mi NNW 5.8 mph - N/A   Overcast
11:24 PM 33.8 °F 27.0 °F 28.4 °F 81% 29.94 in 10.0 mi NNW 8.1 mph - N/A   Overcast
11:53 PM 34.0 °F 29.8 °F 28.9 °F 82% 29.96 in 10.0 mi NNW 4.6 mph - N/A   Overcast